Change the Weather History Date:

Saturday, November 1, 2014

  Actual Average Record
Temperature  
Mean Temperature 39 °F 50 °F  
Max Temperature 50 °F 60 °F 83 °F (1950)
Min Temperature 28 °F 40 °F 21 °F (1993)
Degree Days  
Heating Degree Days 26 15  
Month to date heating degree days 26 15  
Since 1 July heating degree days 407 425  
Cooling Degree Days 0 0  
Month to date cooling degree days 0 0  
Year to date cooling degree days 1162 1121  
Moisture  
Dew Point 24 °F    
Average Humidity 62    
Maximum Humidity 85    
Minimum Humidity 39    
Precipitation  
Precipitation 0.00 in 0.10 in 2.05 in (1984)
Month to date precipitation 0.00 0.10  
Year to date precipitation 41.63 31.80  
Snow  
Snow 0.00 in 0.00 in 0.80 in (1954)
Month to date snowfall 0.0 0.0  
Since 1 July snowfall 0.0 T  
Since 1 September snowfall 0.0 T  
Snow Depth 0.00 in    
Sea Level Pressure  
Sea Level Pressure 30.44 in    
Wind  
Wind Speed 6 mph (North)    
Max Wind Speed 15 mph    
Max Gust Speed 22 mph    
Visibility 10 miles    
Events      
T = Trace of Precipitation, MM = Missing Value Source: NWS Daily Summary

Daily Weather History Graph

Daily Weather History Graph

Search for Another Location

Airport or City:

Trip Planner

Search our weather history database for the weather conditions in past years. The results will help you decide how hot, cold, wet, or windy it might be!

Date:

Astronomy

Nov. 01, 2014 Rise Set
Actual Time 7:27 AM CDT 5:56 PM CDT
Civil Twilight 6:59 AM CDT 6:24 PM CDT
Nautical Twilight 6:27 AM CDT 6:56 PM CDT
Astronomical Twilight 5:56 AM CDT 7:27 PM CDT
Moon 2:50 PM CDT 1:23 AM CDT
Length of Visible Light 11h 25m
Length of Day
10h 28m
Waxing Gibbous, 68% of the Moon is Illuminated
Nov 1
Waxing Gibbous
Nov 6
Full
Nov 14
Last Quarter
Nov 22
New
Nov 29
First Quarter

Hourly Weather History & Observations

Time (CDT) Temp. Windchill Dew Point Humidity Pressure Visibility Wind Dir Wind Speed Gust Speed Precip Events Conditions
12:52 AM 32.0 °F 23.6 °F 21.0 °F 64% 30.40 in 10.0 mi North 10.4 mph - N/A   Clear
1:52 AM 32.0 °F 23.6 °F 21.0 °F 64% 30.41 in 10.0 mi NNW 10.4 mph - N/A   Clear
2:52 AM 32.0 °F 23.0 °F 19.9 °F 61% 30.42 in 10.0 mi NNW 11.5 mph - N/A   Clear
3:52 AM 30.9 °F 21.7 °F 19.9 °F 64% 30.42 in 10.0 mi North 11.5 mph - N/A   Clear
4:52 AM 30.9 °F 21.7 °F 19.9 °F 64% 30.43 in 10.0 mi North 11.5 mph - N/A   Clear
5:52 AM 30.0 °F 21.1 °F 19.9 °F 66% 30.44 in 10.0 mi NNW 10.4 mph - N/A   Clear
6:52 AM 28.9 °F 20.4 °F 19.9 °F 69% 30.45 in 10.0 mi NNW 9.2 mph - N/A   Clear
7:52 AM 30.0 °F 20.5 °F 19.9 °F 66% 30.46 in 10.0 mi NNW 11.5 mph - N/A   Clear
8:52 AM 33.1 °F 25.5 °F 21.9 °F 64% 30.49 in 10.0 mi North 9.2 mph - N/A   Clear
9:52 AM 37.9 °F 31.5 °F 24.1 °F 57% 30.49 in 10.0 mi North 9.2 mph 21.9 mph N/A   Clear
10:52 AM 42.1 °F 36.1 °F 26.1 °F 53% 30.48 in 10.0 mi NNE 10.4 mph - N/A   Clear
11:52 AM 44.1 °F 38.6 °F 27.0 °F 51% 30.48 in 10.0 mi North 10.4 mph - N/A   Clear
12:52 PM 46.9 °F - 27.0 °F 46% 30.46 in 10.0 mi North 8.1 mph - N/A   Clear
1:52 PM 48.0 °F - 28.0 °F 46% 30.43 in 10.0 mi NE 3.5 mph - N/A   Clear
2:52 PM 48.9 °F - 26.1 °F 41% 30.42 in 10.0 mi Variable 6.9 mph - N/A   Clear
3:52 PM 48.9 °F - 25.0 °F 39% 30.42 in 10.0 mi NNE 10.4 mph - N/A   Clear
4:52 PM 48.9 °F - 26.1 °F 41% 30.42 in 10.0 mi North 6.9 mph - N/A   Clear
5:52 PM 45.0 °F 43.5 °F 26.1 °F 48% 30.41 in 10.0 mi North 3.5 mph - N/A   Clear
6:52 PM 37.9 °F - 28.0 °F 68% 30.42 in 10.0 mi Calm Calm - N/A   Clear
7:52 PM 35.1 °F - 25.0 °F 67% 30.42 in 10.0 mi Calm Calm - N/A   Clear
8:52 PM 34.0 °F - 26.1 °F 73% 30.41 in 10.0 mi Calm Calm - N/A   Clear
9:52 PM 30.9 °F - 25.0 °F 79% 30.42 in 10.0 mi Calm Calm - N/A   Clear
10:52 PM 30.9 °F - 25.0 °F 79% 30.43 in 10.0 mi Calm Calm - N/A   Clear
11:52 PM 30.0 °F - 26.1 °F 85% 30.43 in 10.0 mi Calm Calm - N/A   Clear